Powrót do katalogu

STARLINK-35475

AktywnyŁącznośćVLEO
NORAD 65865·PAYLOAD·🇺🇸 United States

Wystrzelony Oct 3, 2025 z Vandenberg Space Force Base

Loading…

Następne Przeloty (najbliższe 24 godziny)

TLE

ŚwieżeSource: CelesTrak SupGP

Epoka: Sep 14, 2026, 23:10 UTC

1 65865C 25223M   26257.96576389  .00017810  00000+0  52540-3 0  2571
2 65865  53.1560 131.3726 0001444  95.1566 347.1757 15.34429591    18

Śledź STARLINK-35475 w czasie rzeczywistym z AllMySat

Download on the App Store